[[{"header":{"parameterUnit":"m.s-1","parameterCategory":1,"la1":30.2991,"la2":30.254,"lo1":-89.0895,"lo2":-89.0444,"dy":0.0017,"dx":0.0017,"nx":28,"ny":28,"refTime":"2024-09-28T21:00:00:Z","depth":0,"parameterNumber":2,"parameterNumberName":"U-component_of_WINDS"},"data":[0,0,0,0,0,0,0,0,0,0,0,0,0,0,0,0,0,0,0,0,0,0,0,0,0,0,0,0,0,0,0,0,0,0,0,0,0,0,0,0,0,0,0,0,0,0,0,0,0,0,0,0,0,0,0,0,0,0,2.3468,2.3469,0,2.3624,2.3626,2.3628,2.3592,2.3589,2.3586,2.3583,2.375,2.3757,2.3764,0,0,0,0,0,0,0,0,0,0,0,0,0,2.3142,2.3149,2.3467,2.3469,2.3471,2.3624,2.3626,2.3628,2.3593,2.3589,2.3585,2.3582,2.3748,2.3756,2.3765,0,0,0,0,0,0,0,0,0,0,0,0,0,2.329,2.3151,2.3467,2.3472,2.3474,2.3624,2.3626,2.3629,2.3593,2.3589,2.3584,2.358,2.3745,2.3755,2.3766,2.3923,0,0,2.3799,2.3804,0,0,0,0,0,0,0,0,2.3282,2.3302,2.3469,2.3472,2.3474,2.3584,2.3573,2.3728,2.3595,2.3548,2.3583,2.3578,2.3699,2.3713,2.3753,2.3931,2.3938,2.38,2.3807,2.3811,2.3815,0,0,0,0,0,0,0,2.3272,2.3295,2.353,2.3472,2.3475,2.3468,2.3484,2.3602,2.3647,2.3552,2.355,2.3568,2.3699,2.3742,2.3756,2.394,2.38,2.381,2.3816,2.382,2.4256,2.4261,0,0,0,0,0,0,2.3258,2.3287,2.3525,2.3534,2.3365,2.3477,2.3495,2.3553,2.3646,2.3655,2.3572,2.3566,2.3726,2.3744,2.3762,2.3952,2.3811,2.3822,2.3828,2.4251,2.4257,2.4262,0,0,0,0,0,0,2.3252,2.328,2.3518,2.341,2.344,2.3488,2.3553,2.3559,2.3602,2.3661,2.3669,2.3607,2.3723,2.3747,2.3883,2.3957,2.3826,2.3836,2.4245,2.4253,2.426,2.4333,0,0,0,0,0,0,2.3242,2.3278,2.3336,2.3412,2.3446,2.3635,2.3558,2.3565,2.362,2.3613,2.3696,2.3705,2.3721,2.3867,2.3894,2.397,2.3845,2.4238,2.4248,2.4257,2.4325,2.4342,2.4358,0,0,0,0,0,2.3231,2.3352,2.334,2.3369,2.352,2.3639,2.3659,2.3673,2.3626,2.3686,2.3724,2.3703,2.3945,2.3881,2.3911,2.3992,2.4234,2.4246,2.4257,2.4317,2.4339,2.4357,0,0,0,0,0,0,2.3287,2.3362,2.3349,2.3498,2.3562,2.3633,2.371,2.3696,2.3777,2.3768,2.3784,2.3803,2.3942,2.398,2.3908,2.4149,2.4083,2.4101,2.4118,2.414,2.4156,2.4145,2.3854,0,0,0,0,0,2.3316,2.3405,2.3467,2.3592,2.3625,2.3662,2.3715,2.372,2.3788,2.3816,2.3863,2.3932,2.4024,2.4084,2.4171,2.433,2.4348,2.44,2.4417,2.443,2.4446,2.4533,2.4557,2.43,2.43,2.4299,0,0,2.3379,2.3431,2.3486,2.3605,2.3655,2.3749,2.3685,2.3787,2.3857,2.3832,2.3963,2.4,2.4078,2.4226,2.4294,2.4263,2.4521,2.4445,2.4455,2.4463,2.4547,2.4572,2.4593,2.4307,2.4306,2.4305,0,0,2.354,2.3587,2.3697,2.3749,2.3825,2.3849,2.3875,2.3948,2.3971,2.4103,2.4086,2.417,2.4327,2.4383,2.4433,2.4615,2.4599,2.4643,2.4731,2.4816,2.4836,2.4854,2.492,2.4943,2.4658,2.4658,2.4658,0,2.3608,2.3746,2.3756,2.3859,2.3912,2.3891,2.4004,2.4054,2.4156,2.4194,2.4157,2.4354,2.4405,2.4566,2.461,2.465,2.4682,2.4634,2.4832,2.485,2.4867,2.493,2.4955,2.4663,2.4663,2.4662,2.4662,0,2.3827,2.3923,2.4003,2.4099,2.4162,2.4269,2.4297,2.4359,2.4359,2.4387,2.4521,2.4582,2.4681,2.4719,2.4721,2.4882,2.486,2.4827,2.4761,2.4896,2.4956,2.498,2.467,2.4668,2.4667,2.4666,0,0,2.4029,2.4128,2.4157,2.4201,2.4284,2.4359,2.4466,2.4561,2.4615,2.4686,2.4777,2.491,2.488,2.4936,2.4944,2.5018,2.516,2.4977,2.4979,2.501,2.5341,2.5366,2.5393,2.5149,2.5154,2.5157,2.5335,0,2.4198,2.4383,2.4395,2.4565,2.4654,2.4635,2.4729,2.4791,2.482,2.4902,2.4934,2.5029,2.4982,2.5015,2.5088,2.5127,2.5227,2.5114,2.5236,2.524,2.5217,2.5424,2.5451,2.5615,2.5358,2.5362,2.5365,0,2.442,2.4495,2.4673,2.4742,2.478,2.4864,2.4952,2.503,2.51,2.5116,2.5178,2.5175,2.5287,2.5216,2.5371,2.5294,2.5345,2.5372,2.5378,2.5391,2.5311,2.5444,2.5668,2.5693,2.5402,2.5399,2.5396,0,2.455,2.4696,2.4821,2.4859,2.4943,2.5003,2.5041,2.5106,2.5163,2.5241,2.5278,2.5368,2.5418,2.5489,2.5512,2.5458,2.5667,2.5598,2.5685,2.5684,2.573,2.5727,2.5967,2.5762,2.5761,2.5761,2.576,0,2.4738,2.4848,2.4881,2.4958,2.5081,2.5094,2.5216,2.5251,2.5309,2.5394,2.5384,2.5465,2.5489,2.5574,2.5593,2.5719,2.5742,2.5759,2.5763,2.5761,2.5758,2.5795,2.5784,2.5767,2.5766,2.5765,2.5763,0,2.4905,2.4931,2.5066,2.5134,2.5154,2.5242,2.5301,2.5376,2.5403,2.5511,2.5537,2.558,2.568,2.5709,2.583,2.5842,2.5991,2.5984,2.5966,2.5967,2.6053,2.6044,2.6325,2.6363,2.6131,2.6133,2.6135,0,2.5024,2.5107,2.5183,2.5238,2.5278,2.5368,2.5424,2.5441,2.5501,2.5587,2.5653,2.575,2.583,2.5991,2.6034,2.6127,2.6123,2.6215,2.6137,2.6132,2.6125,2.612,2.6129,2.623,2.6232,2.6234,2.6236,0,2.5232,2.5241,2.5322,2.5408,2.5475,2.5545,2.5611,2.5657,2.5684,2.5752,2.5853,2.5914,2.6036,2.6134,2.6228,2.627,2.6259,2.6259,2.6285,2.6284,2.6271,2.628,2.6007,2.6253,2.6252,2.625,2.6249,2.6249,2.5379,2.5453,2.5517,2.5608,2.5659,2.5722,2.5795,2.5831,2.5914,2.6013,2.6019,2.6128,2.6197,2.6321,2.6368,2.6455,2.6429,2.6465,2.6474,2.6483,2.6491,2.6255,2.6472,2.6472,2.6471,2.6471,2.6471,0,2.5588,2.5628,2.5711,2.5803,2.5875,2.5855,2.5928,2.599,2.6086,2.615,2.6227,2.6344,2.6439,2.6489,2.6584,2.6645,2.6642,2.6669,2.6666,2.6676,2.6509,2.6478,2.667,2.667,2.667,2.667,2.667,2.667,2.5705,2.5828,2.5844,2.5993,2.6033,2.6138,2.6182,2.624,2.6291,2.642,2.6498,2.6529,2.6589,2.6688,2.6775,2.6787,2.6824,2.6854,2.6864,2.6708,2.6687,2.6668,2.6639,2.6862,2.6862,2.7024,2.7025,2.7026]},{"header":{"parameterUnit":"m.s-1","parameterCategory":1,"la1":30.2991,"la2":30.254,"lo1":-89.0895,"lo2":-89.0444,"dy":0.0017,"dx":0.0017,"nx":28,"ny":28,"refTime":"2024-09-28T21:00:00:Z","depth":0,"parameterNumber":3,"parameterNumberName":"V-component_of_WINDS"},"data":[0,0,0,0,0,0,0,0,0,0,0,0,0,0,0,0,0,0,0,0,0,0,0,0,0,0,0,0,0,0,0,0,0,0,0,0,0,0,0,0,0,0,0,0,0,0,0,0,0,0,0,0,0,0,0,0,0,0,0.7972,0.7972,0,0.8066,0.8067,0.8068,0.8038,0.8036,0.8033,0.8032,0.8137,0.8142,0.8147,0,0,0,0,0,0,0,0,0,0,0,0,0,0.7772,0.7776,0.7971,0.7973,0.7974,0.8066,0.8067,0.8069,0.8038,0.8035,0.8033,0.8031,0.8136,0.8141,0.8147,0,0,0,0,0,0,0,0,0,0,0,0,0,0.7862,0.7777,0.7971,0.7969,0.797,0.8066,0.8067,0.8069,0.8038,0.8035,0.8032,0.8029,0.8134,0.8141,0.8148,0.8254,0,0,0.817,0.8173,0,0,0,0,0,0,0,0,0.7857,0.787,0.7968,0.797,0.7971,0.8037,0.8036,0.8131,0.8039,0.8013,0.8031,0.8028,0.8107,0.8116,0.8141,0.8259,0.8263,0.817,0.8175,0.8178,0.818,0,0,0,0,0,0,0,0.7851,0.7865,0.8009,0.797,0.7971,0.7967,0.7976,0.8054,0.8077,0.8015,0.8013,0.8024,0.8107,0.8134,0.8143,0.8265,0.817,0.8176,0.8181,0.8184,0.8476,0.848,0,0,0,0,0,0,0.7843,0.786,0.8006,0.8012,0.7905,0.7973,0.7983,0.8019,0.8075,0.8081,0.8027,0.8022,0.8124,0.8135,0.8147,0.8276,0.8178,0.8184,0.8188,0.8473,0.8477,0.8481,0,0,0,0,0,0,0.7839,0.7856,0.8002,0.7936,0.7954,0.7979,0.802,0.8022,0.8049,0.8084,0.8089,0.805,0.8122,0.8137,0.8227,0.8279,0.8188,0.8194,0.8469,0.8474,0.8479,0.8534,0,0,0,0,0,0,0.7833,0.7855,0.7893,0.7937,0.7957,0.8079,0.8023,0.8026,0.8061,0.8056,0.8107,0.8113,0.812,0.8217,0.8234,0.8287,0.82,0.8464,0.8471,0.8477,0.8527,0.854,0.8551,0,0,0,0,0,0.7826,0.7907,0.7895,0.7913,0.8006,0.8082,0.8094,0.8099,0.8065,0.8105,0.8128,0.8111,0.827,0.8226,0.8246,0.8301,0.8461,0.8469,0.8477,0.8522,0.8538,0.8551,0,0,0,0,0,0,0.7872,0.7912,0.79,0.7997,0.8036,0.8076,0.8127,0.8115,0.8166,0.816,0.8167,0.8178,0.8271,0.8295,0.8246,0.8408,0.8361,0.8373,0.8389,0.8404,0.8415,0.8408,0.8205,0,0,0,0,0,0.7892,0.7948,0.7981,0.8063,0.8083,0.8102,0.8135,0.8135,0.8177,0.8194,0.8223,0.8267,0.8327,0.8367,0.8423,0.853,0.8542,0.8578,0.859,0.86,0.8611,0.8671,0.8687,0.8507,0.8507,0.8507,0,0,0.7937,0.7966,0.8001,0.8073,0.8103,0.8164,0.8116,0.8182,0.8227,0.8205,0.8292,0.8315,0.8364,0.8463,0.8509,0.8486,0.8663,0.861,0.8617,0.8623,0.868,0.8697,0.8713,0.8512,0.8511,0.851,0,0,0.8049,0.8075,0.8147,0.8178,0.8223,0.8235,0.8252,0.8294,0.8308,0.8394,0.8379,0.8435,0.8537,0.8573,0.8605,0.8731,0.8718,0.8749,0.8812,0.887,0.8884,0.8897,0.8944,0.896,0.876,0.876,0.876,0,0.8099,0.8186,0.8186,0.8252,0.8286,0.8265,0.834,0.837,0.8433,0.8458,0.8431,0.856,0.8592,0.87,0.873,0.8756,0.8778,0.8744,0.8882,0.8894,0.8906,0.8951,0.8968,0.8764,0.8763,0.8763,0.8762,0,0.8247,0.8308,0.8361,0.8419,0.8458,0.8528,0.8541,0.8581,0.8578,0.8593,0.8683,0.872,0.8784,0.881,0.8808,0.8918,0.8903,0.8879,0.8833,0.8927,0.8969,0.8986,0.8769,0.8767,0.8766,0.8766,0,0,0.8391,0.8447,0.8467,0.8493,0.8542,0.859,0.8661,0.8721,0.8756,0.88,0.8861,0.8948,0.8926,0.8962,0.8965,0.9015,0.9114,0.8985,0.8987,0.901,0.924,0.9259,0.9278,0.9105,0.9109,0.9111,0.9237,0,0.8508,0.8628,0.863,0.8742,0.8799,0.8781,0.8842,0.888,0.8897,0.895,0.897,0.9031,0.8997,0.9019,0.9068,0.9092,0.9161,0.9083,0.9165,0.9168,0.9155,0.93,0.932,0.9436,0.9253,0.9256,0.9257,0,0.8661,0.8707,0.8823,0.8863,0.8888,0.8943,0.8998,0.9049,0.9092,0.9101,0.9141,0.9136,0.9211,0.916,0.9265,0.9211,0.9245,0.9262,0.9267,0.9276,0.922,0.9315,0.9473,0.9492,0.9283,0.9281,0.9279,0,0.8756,0.8847,0.8929,0.8952,0.9001,0.904,0.9063,0.9103,0.914,0.9189,0.9214,0.9272,0.9305,0.9352,0.9365,0.9326,0.947,0.942,0.9482,0.9482,0.9514,0.9512,0.9682,0.9533,0.9533,0.9533,0.9532,0,0.8887,0.8959,0.8972,0.9023,0.9104,0.9107,0.9188,0.9209,0.9245,0.9301,0.9289,0.9343,0.9355,0.9412,0.9422,0.9508,0.9523,0.9534,0.9537,0.9536,0.9535,0.956,0.9553,0.9537,0.9536,0.9535,0.9535,0,0.9008,0.9019,0.9107,0.9145,0.9156,0.9215,0.9249,0.9299,0.9314,0.9385,0.9403,0.9427,0.9493,0.9509,0.959,0.9597,0.9699,0.9693,0.9683,0.9684,0.9745,0.974,0.9938,0.9965,0.9797,0.9799,0.98,0,0.9091,0.9146,0.9189,0.9225,0.9249,0.9306,0.9342,0.9348,0.9387,0.944,0.9485,0.9549,0.9601,0.9709,0.9736,0.9797,0.9794,0.9859,0.9803,0.9801,0.9797,0.9794,0.9801,0.987,0.9872,0.9873,0.9875,0,0.9239,0.9241,0.9292,0.9346,0.9389,0.9432,0.9474,0.9504,0.9516,0.9561,0.9627,0.9667,0.9747,0.9813,0.9875,0.9902,0.9892,0.9891,0.9909,0.9911,0.9903,0.991,0.9714,0.9887,0.9886,0.9885,0.9885,0.9884,0.9344,0.9393,0.9431,0.9489,0.952,0.9559,0.9607,0.9627,0.9681,0.9745,0.9746,0.9819,0.9863,0.9945,0.9975,1.0034,1.0015,1.004,1.0047,1.0054,1.006,0.9892,1.0045,1.0045,1.0045,1.0044,1.0044,0,0.9493,0.9516,0.9569,0.9626,0.9672,0.9654,0.97,0.9741,0.9804,0.9844,0.9895,0.9972,1.0035,1.0067,1.013,1.0172,1.0169,1.0188,1.0186,1.0193,1.0073,1.0051,1.019,1.019,1.019,1.019,1.019,1.019,0.9575,0.9656,0.9664,0.9761,0.9784,0.9853,0.9881,0.9918,0.995,1.0036,1.0087,1.0106,1.0144,1.021,1.0268,1.0276,1.0301,1.0323,1.0329,1.0216,1.0201,1.0187,1.0168,1.0328,1.0328,1.0445,1.0446,1.0447]}]]